Regional Weather Roundup
Issued by NWS

Home | Current Version | Previous Version | Text Only | Print | Product List | Glossary On
Versions: 1 2 3 4 5 6 7 8 9 10 11 12 13 14 15 16 17 18 19 20 21 22 23 24 25 26 27 28 29 30 31 32 33 34 35 36 37 38 39 40 41 42 43 44 45 46 47 48 49 50
000
ASUS44 KLIX 220410
RWRLA
LOUISIANA WEATHER ROUNDUP
NATIONAL WEATHER SERVICE NEW ORLEANS LA
1100 PM CDT THU AUG 21 2014

NOTE: "FAIR" INDICATES FEW OR NO CLOUDS BELOW 12,000 FEET WITH NO
      SIGNIFICANT WEATHER AND/OR OBSTRUCTIONS TO VISIBILITY.
      SKY/WX - SKY CONDITION AND SIGNIFICANT WEATHER.
      TMP - AIR TEMPERATURE.    DP   - DEWPOINT TEMPERATURE.
      RH  - RELATIVE HUMIDITY.  PRES - PRESSURE.
      HX  - HEAT INDEX.         WCI  - WIND CHILL INDEX.

*  THESE STATIONS ARE NOT NWS OR FAA STATIONS AND ARE NOT UNDER
   NWS QUALITY CONTROL.

LAZ040-048-061>063-065-066-069-220500-
SOUTHEAST LOUISIANA

CITY           SKY/WX    TMP DP  RH WIND       PRES   REMARKS
N.O. AUDUBON   NOT AVBL
N.O. INTL ARPT MOCLDY    79  74  84 SW3       30.12R
N.O. LAKEFRONT MOCLDY    83  76  79 NW3       30.12S
N.O. DOWNTOWN* FAIR      82  70  65 CALM      30.13R
SLIDELL        CLOUDY    79  74  84 CALM      30.11S
BATON ROUGE    PTCLDY    76  74  93 CALM      30.11S
BOOTHVILLE     CLEAR     82  79  90 CALM      30.13R
BELLE CHASSE   MOCLDY    76  72  87 CALM      30.12R
BOGALUSA*      FAIR      79  73  82 SW3       30.12S
GALLIANO*      NOT AVBL
NEW ROADS*     FAIR      74  73  97 CALM      30.10F
GONZALES*      FAIR      76  76 100 CALM      30.11S
HAMMOND*       MOCLDY    75  72  88 CALM      30.12S
HOUMA*         PTCLDY    75  72  88 CALM      30.13R
PORT FOURCHON* PTCLDY    84  77  79 W3        30.14S

$$

LAZ041-044-053-054-220500-
SOUTHWEST LOUISIANA

CITY           SKY/WX    TMP DP  RH WIND       PRES   REMARKS
LAKE CHARLES   MOCLDY    80  76  87 S3        30.09F
LAFAYETTE      MOCLDY    77  75  93 S5        30.10F
PATTERSON      PTCLDY    75  73  94 CALM        N/A
SALT POINT       N/A     81  78  91 CALM      30.12S
NEW IBERIA     MOCLDY    76  74  93 S5        30.11F
CHENAULT AIRPK MOCLDY    78  76  92 SE5       30.10F

$$

LAZ027-028-220500-
CENTRAL LOUISIANA

CITY           SKY/WX    TMP DP  RH WIND       PRES   REMARKS
FORT POLK      PTCLDY    76  73  91 S3        30.09
ALEXANDRIA INT MOCLDY    75  73  93 SE3       30.07S
ALEXANDRIA     MOCLDY    76  72  87 CALM      30.09S

$$

LAZ001-002-220500-
NORTHWEST LOUISIANA

CITY           SKY/WX    TMP DP  RH WIND       PRES   REMARKS
SHREVEPORT     MOCLDY    81  74  79 S6        30.05R
BARKSDALE AFB  MOCLDY    77  73  87 S8        30.06R
DTN SHREVEPORT MOCLDY    79  74  84 SE7       30.05R

$$

LAZ014-016-220500-
NORTHEAST LOUISIANA

CITY           SKY/WX    TMP DP  RH WIND       PRES   REMARKS
MONROE         MOCLDY    75  71  87 S5        30.09R
TALLULAH       MOCLDY    76  73  91 CALM      30.09R

$$



USA.gov is the U.S. government's official web portal to all federal, state and local government web resources and services.